Date,TemperatureHighF,TemperatureAvgF,TemperatureLowF,DewpointHighF,DewpointAvgF,DewpointLowF,HumidityHigh,HumidityAvg,HumidityLow,PressureMaxIn,PressureMinIn,WindSpeedMaxMPH,WindSpeedAvgMPH,GustSpeedMaxMPH,PrecipitationSumIn
2013-4-1,39,34,28,-100,-100,-100,0,0,100,0.00,40.00,13,8,21,0.00
2013-4-2,43,33,22,-100,-100,-100,0,0,100,0.00,40.00,12,5,21,0.00
2013-4-3,49,36,27,-100,-100,-100,0,0,100,0.00,40.00,9,5,14,0.00
2013-4-4,59,45,28,-100,-100,-100,0,0,100,0.00,40.00,8,3,14,0.00
2013-4-5,56,47,36,-100,-100,-100,0,0,100,0.00,40.00,14,8,19,0.00
2013-4-6,67,56,45,-100,-100,-100,0,0,100,0.00,40.00,20,11,26,0.04
2013-4-7,67,51,39,-100,-100,-100,0,0,100,0.00,40.00,13,5,22,0.04
2013-4-8,71,55,50,-100,-100,-100,0,0,100,0.00,40.00,15,7,22,0.49
2013-4-9,76,58,48,-100,-100,-100,0,0,100,0.00,40.00,19,10,24,0.03
2013-4-10,47,43,40,-100,-100,-100,0,0,100,0.00,40.00,22,14,29,0.99
2013-4-11,46,42,38,-100,-100,-100,0,0,100,0.00,40.00,16,7,21,0.38
2013-4-12,43,39,37,-100,-100,-100,0,0,100,0.00,40.00,16,8,25,0.01
2013-4-13,50,42,36,-100,-100,-100,0,0,100,0.00,40.00,13,8,21,0.01
2013-4-14,76,59,43,-100,-100,-100,0,0,100,0.00,40.00,17,12,24,0.04
2013-4-15,61,50,41,-100,-100,-100,0,0,100,0.00,40.00,13,5,19,0.14
2013-4-16,51,44,37,-100,-100,-100,0,0,100,0.00,40.00,12,5,17,0.11
2013-4-17,52,46,42,-100,-100,-100,0,0,100,0.00,40.00,19,11,25,1.10
2013-4-18,62,51,39,-100,-100,-100,0,0,100,0.00,40.00,23,11,33,1.50
2013-4-19,41,38,36,-100,-100,-100,0,0,100,0.00,40.00,22,16,35,0.06
2013-4-20,48,39,32,-100,-100,-100,0,0,100,0.00,40.00,10,5,13,0.00
2013-4-21,61,48,39,-100,-100,-100,0,0,100,0.00,40.00,16,12,24,0.00
2013-4-22,75,60,49,-100,-100,-100,0,0,100,0.00,40.00,15,9,21,0.04
2013-4-23,53,43,38,-100,-100,-100,0,0,100,0.00,40.00,14,8,19,0.29
2013-4-24,53,44,35,-100,-100,-100,0,0,100,0.00,40.00,12,8,17,0.01
2013-4-25,60,47,38,-100,-100,-100,0,0,100,0.00,40.00,15,8,21,0.01
2013-4-26,67,56,46,-100,-100,-100,0,0,100,0.00,40.00,16,9,22,0.00
2013-4-27,64,56,46,-100,-100,-100,0,0,100,0.00,40.00,11,4,18,0.00
2013-4-28,72,60,47,-100,-100,-100,0,0,100,0.00,40.00,5,2,6,0.00
2013-4-29,81,65,49,-100,-100,-100,0,0,100,0.00,40.00,16,8,24,0.00
2013-4-30,91,80,66,-100,-100,-100,0,0,100,0.00,40.00,17,8,23,0.00